Regional Weather Roundup
Issued by NWS

Home | Current Version | Previous Version | Graphics & Text | Print | Product List | Glossary On
Versions: 1 2 3 4 5 6 7 8 9 10 11 12 13 14 15 16 17 18 19 20 21 22 23 24 25 26 27 28 29 30 31 32 33 34 35 36 37 38 39 40 41 42 43 44 45 46 47 48 49 50
000
ASUS45 KBOU 261707
RWRCO

WEATHER ROUNDUP FOR COLORADO
NATIONAL WEATHER SERVICE DENVER/BOULDER CO
1100 AM MDT SUN APR 26 2015

NOTE: "FAIR" INDICATES FEW OR NO CLOUDS BELOW 12000 FEET WITH NO
SIGNIFICANT WEATHER AND/OR OBSTRUCTIONS TO VISIBILITY.

COZ001>005-013-030-031-261800-
...NORTHWEST COLORADO...

CITY           SKY/WX    TMP DP  RH WIND       PRES   REMARKS
CRAIG          PTSUNNY   54  38  54 VRB3      29.78R
HAYDEN         PTSUNNY   50  32  50 E8        29.78R
MEEKER         PTSUNNY   50  39  66 W12       29.78S
MOUNT WERNER   NOT AVBL
STEAMBOAT SPGS PTSUNNY   46  37  69 W3        29.78R
WALDEN         CLOUDY    41  34  75 CALM      29.84S
$$

COZ006>008-011-261800-
...WEST CENTRAL VALLEYS...

CITY           SKY/WX    TMP DP  RH WIND       PRES   REMARKS
GRAND JUNCTION LGT RAIN  44  40  85 N3        29.80R
MONTROSE       CLOUDY    44  40  85 NW12      29.81R
EAGLE          MOSUNNY   46  37  71 CALM      29.80F
RIFLE          PTSUNNY   49  41  74 W7        29.77S
DELTA          CLOUDY    47  43  85 MISG      29.79S
NUCLA          CLOUDY    43  36  75 CALM      29.84S
$$

COZ017>023-064>068-261800-
...SOUTHWEST COLORADO...

CITY           SKY/WX    TMP DP  RH WIND       PRES   REMARKS
DURANGO        LGT RAIN  42  38  85 CALM      29.77F
CORTEZ         CLOUDY    46  39  76 NE6       29.79R
PAGOSA SPRINGS CLOUDY    41  36  83 CALM      29.80S
TELLURIDE      CLOUDY    36  35  95 W10       29.82S
WOLF CREEK PAS NOT AVBL
$$

COZ009-010-012-014-032>034-037-058>063-261800-
...CENTRAL COLORADO...

CITY           SKY/WX    TMP DP  RH WIND       PRES   REMARKS
ASPEN          PTSUNNY   43  35  73 N8        29.78R
BUENA VISTA    PTSUNNY   39  36  87 N3        29.83S
COPPER MTN     CLOUDY    34  28  80 E8        29.92R WCI  27
BERTHOUD PASS  HAZE      23  14  68 MISG      29.95R VSB<1/4
COTTONWOOD PAS LGT SNOW  39  34  81 E7        29.86S
GUNNISON       PTSUNNY   46  28  49 W6        29.79F
KREMMLING      CLOUDY    45  34  65 NW6       29.83S
LEADVILLE      LGT SNOW  33  30  88 S9        29.84S FOG     WCI  25
MONARCH PASS   FOG       28  27  93 NE20      29.98S VSB<1/4 WCI  15
SALIDA         PTSUNNY   47  40  77 CALM      29.88S
SUNLIGHT       CLOUDY    34  32  93 CALM      29.90S
WILKERSON PASS SNOW     N/A N/A N/A E6        29.93S VSB<1/4
$$

COZ069>075-261800-
...SAN LUIS VALLEY/SANGRE DE CRISTO MOUNTAINS...

CITY           SKY/WX    TMP DP  RH WIND       PRES   REMARKS
ALAMOSA        CLOUDY    46  32  58 SW12      29.78S
LA VETA PASS   FOG       34  32  93 NE9G21    29.86S VSB 1/4 WCI  26
SAGUACHE       PTSUNNY   48  32  53 S7G16     29.80S
$$

COZ035-036-038>040-261800-
...NORTHERN COLORADO FRONT RANGE...

CITY           SKY/WX    TMP DP  RH WIND       PRES   REMARKS
DENVER INTL AP CLOUDY    42  42 100 E16       29.87R FOG
DMNS CITY PARK   N/A     44  41  91 NE5G10    29.87S
AURORA         NOT AVBL
FRONT RANGE AP LGT RAIN  43  41  93 MISG      29.89R
ERIE MUNI ARPT LGT RAIN  46  43  91 E8        29.89R
BOULDER MUN AP LGT RAIN  43  43 100 NE6       29.89R
CENTENNIAL     CLOUDY    42  41  96 NE9       29.87R FOG
BROOMFIELD     LGT RAIN  45  43  93 E5        29.89R
FORT COLLINS   CLOUDY    45  41  87 E6        29.92R
LONGMONT       RAIN      47  44  90 E7        29.91R
$$

COZ041-046-047-076>085-087-088-261800-
...PIKES PEAK/PALMER DIVIDE AND SOUTHERN FOOTHILLS...

CITY           SKY/WX    TMP DP  RH WIND       PRES   REMARKS
COLO. SPRINGS  LGT RAIN  43  42  97 E18       29.85R FOG
A. F. ACADEMY  NOT AVBL
ELLICOTT       LGT RAIN N/A N/A N/A E17       29.85R
FALCON         LGT RAIN  40  40 100 E17       29.87R VSB 1
FORT CARSON    NOT AVBL
LIMON          CLOUDY    42  42 100 E17       29.87R FOG
MONUMENT HILL  CLOUDY    37  37 100 SE10      29.86R FOG
TRINIDAD       PTSUNNY   52  35  52 NE6       29.77F
$$

COZ042>045-048>051-090-091-261800-
...NORTHEAST COLORADO...

CITY           SKY/WX    TMP DP  RH WIND       PRES   REMARKS
GREELEY ARPT   CLOUDY    45  39  81 E15G21    29.90R
AKRON          CLOUDY    41  41 100 E12       29.91S FOG
BURLINGTON     CLOUDY    42  41  96 E16       29.90R FOG
WRAY           CLOUDY   N/A N/A N/A E13G21    29.94R
STERLING       CLOUDY    43  43 100 E7        29.93S FOG
HOLYOKE        DRIZZLE   43  41  93 E12       29.95R
FORT MORGAN    LGT RAIN  43  41  94 E13       29.91S
$$

COZ086-089-092>099-261800-
...SOUTHEAST COLORADO...

CITY           SKY/WX    TMP DP  RH WIND       PRES   REMARKS
PUEBLO         CLOUDY    46  45  96 E21G30    29.80R
LA JUNTA       CLOUDY    47  45  93 E18       29.83R FOG
LAMAR          CLOUDY    48  45  89 E18G30    29.83R
SPRINGFIELD      N/A     47  46  97 E17       29.81R
$$



USA.gov is the U.S. government's official web portal to all federal, state and local government web resources and services.